RH
98 97 97 97 98 99 99 99 99 98 99 92 62 44 43 46 48 50 60 63 68 70 75 70 66 69 76 76 44 39 39 69 70 67 69 64 71 51 51 42 38 41 36 28 56 63 62
97 98 97 98 99 99 99 99 93 97 98 98 91 57 42 41 43 43 49 52 66 68 68 72 68 70 75 70 46 43 55 67 71 68 61 62 65 48 49 40 39 32 33 32 48 57 59
97 98 92 95 99 96 96 95 94 94 98 99 79 76 50 42 41 38 42 46 55 63 63 65 64 69 70 61 46 41 60 62 60 65 63 54 50 57 57 46 33 30 37 35 39 56 55
91 91 96 96 99 99 99 98 95 98 99 97 76 54 45 47 44 37 38 41 49 56 60 60 63 67 81 43 40 36 44 57 59 60 59 48 43 52 55 42 36 34 33 46 37 44 42
97 94 97 98 99 99 99 99 97 98 96 86 49 36 39 42 44 38 35 38 45 49 55 57 66 63 50 37 38 35 35 45 56 55 54 46 41 53 49 46 53 43 50 42 39 40 42
97 93 85 92 100 100 99 98 99 98 78 49 33 33 36 37 40 39 35 44 45 46 54 61 65 61 43 42 36 35 38 48 47 58 60 49 58 60 60 56 68 52 48 36 41 42 38
97 99 93 90 98 97 100 100 100 99 38 33 37 40 37 34 38 40 38 54 57 61 60 50 47 45 38 36 36 35 36 38 43 62 71 51 76 70 58 51 40 32 36 36 27 35 38
97 94 88 79 84 93 96 95 100 93 36 37 40 42 39 34 37 40 56 57 58 58 66 38 40 40 36 36 46 37 35 43 49 63 52 58 69 55 49 47 38 36 38 38 32 32 36
94 77 83 65 45 43 41 46 87 88 34 39 40 39 37 33 39 52 49 58 54 54 65 43 34 36 38 37 43 41 37 42 47 53 54 63 56 42 43 40 36 36 38 31 33 31 29
82 93 58 51 46 40 36 30 37 47 30 39 40 36 35 45 56 51 61 57 54 54 79 40 39 38 36 37 45 34 34 39 45 49 50 51 42 41 39 40 39 41 35 30 36 36 40
96 73 53 50 45 39 34 30 28 42 31 34 40 36 38 41 57 58 60 48 46 52 67 35 36 30 32 40 41 42 36 40 52 50 49 54 53 48 44 45 41 38 34 33 29 37 38
90 61 56 50 45 35 32 27 26 41 35 34 37 36 51 57 59 59 46 42 56 76 58 41 31 36 39 38 38 42 42 39 40 47 43 47 43 47 48 41 40 36 32 37 52 62 66
74 61 56 52 43 36 30 27 24 41 37 33 35 38 40 56 66 50 46 59 80 71 33 44 44 40 40 38 40 43 47 48 57 64 66 48 49 45 44 47 39 42 61 82 71 73 70
71 65 58 56 49 37 27 26 23 34 38 34 34 41 47 47 50 44 58 68 64 37 46 37 40 41 43 33 35 42 43 51 43 41 63 72 61 51 45 48 50 42 56 84 62 81 59
70 69 62 59 53 42 28 26 24 26 39 34 41 56 54 54 49 53 76 79 63 54 47 51 48 41 35 33 31 35 44 44 38 38 47 48 53 50 47 44 42 41 49 36 41 50 50
74 72 64 60 55 48 30 27 25 25 35 40 50 59 61 48 49 62 72 48 51 44 44 43 48 34 36 31 35 36 36 36 38 33 32 36 46 47 51 46 44 39 36 45 68 46 40
76 72 68 62 57 53 40 28 26 24 29 49 66 72 64 45 46 71 61 50 42 38 39 45 47 44 37 34 31 29 31 42 43 34 31 32 42 50 48 60 52 46 40 36 41 48 43
78 73 66 66 60 55 53 32 28 24 24 58 70 64 61 46 60 61 45 36 43 36 36 39 39 42 37 32 33 30 40 44 42 42 38 33 44 54 53 40 38 41 36 36 54 34 37
77 76 73 66 66 60 58 48 34 29 26 47 76 63 55 53 39 49 42 35 34 32 32 31 33 31 31 33 33 32 35 49 43 44 42 41 42 62 51 48 38 40 41 34 36 50 41
77 78 78 74 68 68 64 60 39 35 40 48 66 59 71 72 52 39 39 36 35 35 34 30 32 26 29 27 30 30 28 47 46 42 44 41 44 42 56 36 39 42 41 42 36 68 38
86 84 83 81 76 70 70 64 61 36 33 61 72 57 54 41 54 45 40 40 37 40 40 32 35 31 28 30 29 28 22 34 50 50 46 44 53 40 39 37 32 35 42 46 54 42 40
83 87 86 86 86 78 72 70 67 48 33 56 55 56 64 52 44 46 49 43 41 35 38 42 40 38 33 32 34 43 38 31 28 49 44 43 46 38 40 30 36 33 35 39 49 47 45
83 83 85 86 85 84 78 75 70 66 40 67 58 57 58 49 47 50 48 40 41 36 34 36 41 42 46 46 41 44 44 41 37 31 45 43 47 47 46 43 49 58 51 38 33 42 42
78 80 84 84 84 84 83 79 77 75 59 60 72 67 69 52 49 45 35 36 39 43 34 38 40 44 41 42 48 50 58 59 56 48 35 42 39 39 54 52 64 40 45 42 35 28 36
75 77 78 80 81 80 81 82 81 79 78 59 58 76 80 68 50 38 32 35 37 42 48 45 45 44 46 48 60 58 56 56 61 65 53 45 48 57 63 75 55 40 48 46 42 42 37
74 72 74 76 78 78 79 79 78 80 82 81 60 77 82 83 58 31 30 30 43 50 52 51 53 50 50 65 65 63 51 42 49 71 59 60 56 62 74 72 74 44 44 39 41 50 51
83 82 81 79 77 75 74 75 76 77 80 84 76 77 81 96 74 36 39 38 45 47 53 62 66 63 58 79 81 81 65 41 51 62 79 80 77 77 77 82 67 44 40 41 47 44 48
98 94 92 89 89 90 84 78 76 74 80 84 84 79 72 96 88 54 42 43 49 57 47 54 57 67 83 83 86 77 67 54 52 53 69 71 84 86 80 81 80 44 47 49 47 52 50
98 99 100 100 99 99 99 98 93 83 79 87 98 85 76 99 82 70 56 49 49 48 58 60 49 68 71 75 81 71 68 70 62 66 53 66 55 65 64 65 49 52 47 49 57 57 53
Wind_Speed
7 9 9 10 11 12 13 12 12 10 10 8 8 8 8 9 10 12 14 16 17 15 11 10 8 6 4 2 4 9 12 7 3 5 4 2 3 2 2 2 4 6 8 5 6 6 3
7 9 9 11 13 14 15 14 12 11 9 9 7 7 8 8 9 10 13 14 14 13 9 10 7 8 3 2 7 10 8 4 2 6 4 2 3 4 5 4 3 4 11 4 4 5 2
8 9 10 12 13 14 15 14 13 11 10 9 7 7 6 8 9 10 11 12 13 12 8 9 6 7 3 3 5 6 7 7 4 0 2 5 3 5 7 6 3 4 8 4 5 6 5
8 10 11 12 13 13 15 15 13 11 9 8 7 5 5 7 8 8 9 9 8 7 7 6 6 4 4 6 5 9 3 5 4 1 3 7 6 2 2 5 6 6 3 4 5 8 4
9 10 12 13 13 14 15 15 13 11 8 7 4 4 5 6 7 7 8 8 6 5 5 6 5 3 3 8 5 8 8 4 3 2 3 6 2 1 6 3 4 4 3 3 2 8 6
9 10 11 13 14 14 15 16 15 12 8 6 5 6 6 7 7 7 8 10 6 7 6 7 8 3 3 2 4 6 6 4 2 2 3 1 3 2 5 4 4 2 2 3 4 6 2
9 10 12 13 14 15 15 16 15 12 8 7 8 9 7 6 7 7 9 3 5 3 1 1 5 2 2 3 3 1 1 2 3 4 3 2 5 2 8 6 6 3 4 6 4 6 5
9 10 12 13 14 15 16 17 16 13 6 6 10 10 5 3 5 4 6 3 3 2 5 3 4 3 3 2 3 0 2 1 1 2 2 3 3 8 5 9 5 6 4 4 2 2 5
8 10 12 13 15 18 20 21 17 14 5 6 10 8 5 2 3 4 4 4 3 5 1 3 1 2 1 1 4 1 1 4 2 3 3 2 5 6 6 4 4 2 2 1 5 1 3
8 10 11 13 15 17 18 20 21 14 5 5 8 7 5 3 2 4 2 5 3 3 4 2 2 1 1 1 2 2 1 0 3 3 4 2 3 2 1 2 3 3 1 3 5 4 5
7 9 11 11 13 14 16 19 21 16 5 3 7 6 4 7 3 2 4 5 3 2 5 6 2 2 2 1 2 1 1 3 3 4 5 4 4 3 2 2 2 5 3 3 3 3 3
6 9 9 10 12 14 16 19 21 18 5 2 5 6 4 3 3 4 6 4 1 5 3 5 1 3 1 3 2 1 1 2 3 4 3 3 1 1 2 2 2 4 3 5 5 3 2
5 8 9 10 11 13 15 17 20 18 5 2 3 5 5 3 3 6 4 2 4 6 1 6 3 5 5 4 3 4 2 1 1 4 3 2 1 1 1 2 3 5 6 3 4 3 4
4 6 8 10 12 13 14 16 19 18 8 2 1 3 5 4 4 3 2 3 8 2 3 2 3 6 4 2 2 4 3 3 3 2 2 2 6 3 1 1 2 2 5 4 5 3 4
3 5 7 10 11 13 14 14 16 17 9 3 2 2 2 5 2 2 4 5 3 2 3 5 7 2 4 2 1 2 6 2 1 4 3 4 3 1 2 2 2 2 2 3 2 2 2
2 4 6 9 11 13 14 13 14 16 11 3 4 3 2 4 1 2 4 1 1 2 4 2 2 2 3 5 1 1 2 3 2 2 3 2 4 0 1 1 2 2 3 2 2 1 3
1 3 5 7 10 12 14 14 14 15 13 3 1 2 1 1 0 4 3 3 2 2 1 2 4 4 3 2 4 3 5 3 6 4 2 1 2 3 2 4 6 1 3 2 2 5 3
2 2 5 7 9 10 13 15 14 15 14 3 1 2 0 2 3 1 2 2 1 1 1 2 2 3 3 4 3 3 3 2 2 1 4 2 4 4 8 2 1 2 4 5 4 4 2
5 4 5 6 8 10 12 14 15 15 16 3 0 2 1 1 2 2 3 2 2 2 2 1 2 1 2 3 3 2 3 1 2 2 1 2 3 2 7 4 3 1 4 2 2 3 4
4 5 6 6 7 9 11 13 14 14 15 3 2 2 3 2 1 2 1 2 2 2 2 2 3 2 2 3 5 3 3 2 1 1 1 2 2 5 6 5 4 3 5 5 4 3 3
7 6 6 7 8 9 10 12 14 14 13 4 1 3 4 2 3 1 2 2 2 3 3 4 2 4 2 3 4 4 2 2 2 2 1 1 4 3 6 8 5 6 7 7 8 8 8
10 9 9 9 9 10 10 11 14 15 12 1 1 1 3 2 2 3 3 4 6 2 5 4 4 2 6 5 4 4 1 3 2 2 2 2 4 3 5 6 8 7 10 10 9 7 11
12 11 10 9 9 11 11 11 12 15 11 2 1 1 4 4 2 4 4 5 5 4 4 5 7 2 4 8 5 5 5 4 5 0 3 3 2 3 5 5 5 7 9 10 5 6 8
12 12 12 11 10 10 11 11 11 12 11 5 4 2 3 5 4 5 3 5 6 5 4 3 5 4 3 1 4 3 4 5 6 6 4 1 2 2 4 5 3 5 3 1 9 5 7
14 14 13 13 13 12 12 11 12 10 9 8 4 1 1 3 4 5 8 6 4 4 5 5 5 4 3 3 3 5 4 4 1 4 2 2 3 3 2 2 7 4 4 3 2 5 3
14 13 15 15 15 15 14 13 13 12 11 9 8 5 2 2 5 4 4 5 5 4 3 4 2 1 2 2 2 4 4 5 3 1 3 3 4 3 2 2 4 2 2 3 2 5 6
19 18 18 18 17 16 17 16 16 15 14 12 5 5 4 3 5 3 4 4 3 2 3 2 4 3 3 3 4 5 5 4 4 5 5 2 1 5 4 3 8 4 3 3 1 4 2
19 20 20 21 20 20 20 19 18 17 17 16 9 5 6 3 5 4 3 3 2 2 4 3 3 2 3 3 4 5 5 6 4 6 7 8 6 4 2 3 8 5 2 4 3 2 0
3 3 7 12 17 20 22 23 22 20 19 20 15 17 14 6 6 12 19 25 14 4 2 3 3 4 5 2 2 1 3 1 5 4 0 2 7 5 9 6 4 7 6 4 4 3 3
Wind_Direction
35 37 29 20 15 10 5 355 347 337 325 297 291 297 305 317 330 337 336 345 357 360 7 16 15 7 333 345 44 17 339 333 297 172 226 270 299 290 255 255 265 217 265 288 139 165 281
31 30 28 22 16 8 2 358 351 339 326 314 300 299 304 309 323 335 339 345 350 360 11 12 30 1 327 39 9 341 356 333 151 190 245 196 242 302 259 255 191 228 224 204 179 158 169
29 21 21 21 14 7 3 358 357 347 338 326 301 308 310 311 318 332 340 349 356 7 1 356 13 5 321 272 329 338 28 17 160 134 4 344 341 40 325 314 335 241 219 138 168 180 167
32 19 17 17 8 6 4 3 360 355 346 331 314 308 314 317 320 332 335 348 354 5 353 21 4 13 284 329 336 6 7 28 79 50 324 329 358 313 223 287 325 161 118 149 210 145 172
25 23 15 11 9 6 5 4 3 356 352 339 329 318 315 316 316 327 331 332 329 321 318 315 342 7 344 335 7 6 349 327 185 281 324 325 342 333 343 21 8 15 180 166 164 179 139
27 19 16 12 8 10 8 7 5 0 2 8 3 338 317 312 319 326 333 318 309 303 317 291 277 353 318 331 337 333 1 5 317 101 331 307 39 30 350 68 189 245 339 318 188 199 153
28 18 17 13 12 9 9 8 7 4 17 25 11 352 332 309 325 342 354 353 10 358 330 259 304 349 358 311 304 327 306 345 353 38 29 274 65 228 243 233 230 303 246 229 236 214 140
27 21 18 19 15 9 10 10 6 3 23 18 4 357 354 333 343 1 7 52 79 272 323 246 251 264 249 299 292 315 321 314 333 319 312 27 253 242 239 263 233 241 252 286 262 199 163
29 21 19 19 19 18 14 10 8 2 17 14 9 13 28 48 23 38 25 56 352 2 249 279 244 323 143 2 331 276 108 334 280 310 317 185 267 323 214 330 28 325 227 301 233 138 17
28 20 24 25 20 17 15 12 8 7 23 15 14 28 52 62 55 10 68 349 17 3 63 298 279 231 269 259 306 5 338 254 312 283 280 238 289 312 321 321 49 309 19 273 136 108 184
30 24 30 25 20 13 12 12 11 9 21 32 18 35 71 42 355 31 323 327 360 89 49 294 317 273 179 142 222 270 312 339 281 322 63 277 356 338 17 310 356 240 329 273 159 192 79
30 33 25 24 18 12 9 13 12 10 29 64 33 47 24 32 357 341 324 339 344 47 309 339 297 283 259 223 206 217 268 161 252 302 233 242 257 319 229 301 254 284 348 26 48 76 59
33 33 23 20 19 13 10 12 13 12 46 95 42 37 48 7 341 335 342 46 35 79 280 316 321 331 317 227 195 185 232 244 221 32 337 345 269 258 269 324 340 45 52 5 10 12 215
36 31 25 15 18 15 11 12 14 16 26 66 20 13 28 28 336 350 9 60 64 300 359 345 282 294 249 204 240 208 302 289 218 160 311 147 336 202 282 233 194 195 141 154 183 178 240
37 27 24 20 17 16 11 12 14 15 11 14 340 338 333 2 348 9 74 47 220 302 295 327 315 298 315 269 238 242 211 217 13 170 154 7 286 336 12 2 59 273 165 171 107 310 77
7 20 19 20 19 14 11 9 9 10 6 333 323 285 249 332 73 71 75 218 227 284 319 312 305 38 318 325 294 129 222 330 98 94 26 282 329 26 294 353 248 207 310 63 4 214 245
346 5 9 13 19 14 11 9 4 3 1 356 5 28 242 315 175 51 107 230 286 170 38 341 326 315 310 341 322 284 342 358 10 336 112 195 81 280 75 214 191 119 289 233 159 155 182
279 334 358 1 8 13 8 8 4 359 5 2 43 8 193 171 42 90 137 218 188 289 177 289 263 267 298 322 309 303 349 184 333 348 310 302 153 257 232 254 313 264 243 168 131 249 216
258 283 320 349 359 3 5 6 6 1 0 359 347 228 151 296 96 317 270 240 221 229 239 308 274 84 317 280 332 332 336 294 347 6 192 344 281 345 331 346 360 239 266 273 109 65 216
270 281 303 322 343 351 356 0 1 4 1 348 74 359 334 52 217 158 344 251 250 212 241 213 252 282 287 277 212 291 300 224 192 331 331 70 257 208 201 205 166 231 233 221 158 140 209
278 294 305 323 330 335 344 353 356 356 353 327 106 215 184 284 299 255 178 257 254 249 225 203 257 222 220 292 308 228 256 273 195 163 354 142 261 241 260 257 248 232 222 211 196 204 192
272 283 290 300 320 326 331 344 351 353 349 132 112 86 356 257 190 186 210 245 206 214 164 235 216 240 199 215 204 275 323 237 288 190 217 158 271 315 284 275 218 242 238 224 230 238 250
272 277 281 288 298 317 325 333 347 355 357 10 356 107 106 272 235 139 222 225 232 151 234 197 202 236 250 246 227 230 233 250 238 265 212 189 216 12 266 304 312 293 238 204 204 211 193
266 275 278 283 288 298 311 321 338 352 6 351 359 343 103 264 196 207 223 203 207 223 241 249 182 177 237 4 310 255 258 254 251 254 191 206 305 209 273 333 247 253 29 6 216 253 218
267 271 278 279 278 286 289 299 314 329 339 343 304 346 150 248 233 288 261 231 246 240 234 222 221 197 123 56 1 340 338 338 25 41 123 117 121 298 270 254 288 310 5 16 355 301 292
269 275 275 277 278 281 281 282 285 298 312 319 306 263 183 140 248 260 252 205 219 211 284 226 67 98 93 126 137 222 224 235 250 230 21 90 95 137 332 258 266 271 267 304 280 292 355
263 265 267 265 270 276 278 277 276 275 283 286 263 263 263 219 267 217 220 210 199 198 208 179 179 143 99 161 184 204 231 202 207 195 172 121 169 203 225 263 283 241 227 311 116 257 336
256 261 265 267 271 269 268 269 269 265 267 265 263 242 220 246 279 268 294 258 278 209 193 198 67 285 98 185 182 228 201 217 179 186 178 171 165 207 172 191 261 159 99 185 223 302 188
27 304 276 275 274 273 274 270 266 261 259 260 251 258 248 209 249 286 280 262 250 260 174 216 214 174 194 162 224 232 243 188 184 219 142 217 189 190 184 214 227 202 193 198 174 199 205